Location: Berville
(49.1893°N, 2.0748°E)
Time: 14:07:21
(UTC+00:00)

Cosmos 1980 Rocket - Visible Passes

Search period start: 25 September 2023 00:00
Search period end: 05 October 2023 00:00
Orbit: 827 x 851 km, 71.0° (Epoch: 24 September)

Date Brightness Start Highest point End Pass type
(mag) Time Alt. Az. Time Alt. Az. Time Alt. Az.
25 Sep 4.4 00:02:03 10° N 00:05:19 20° NNE 00:05:19 20° NNE visible
25 Sep 4.2 01:45:28 10° NNW 01:47:00 19° NNW 01:47:00 19° NNW visible
25 Sep 4.5 18:25:54 10° W 18:30:28 24° NW 18:35:03 10° NNE visible
25 Sep 4.5 23:46:15 10° N 23:49:06 19° NNE 23:49:06 19° NNE visible
26 Sep 4.4 01:29:38 10° NNW 01:30:49 17° NNW 01:30:49 17° NNW visible
26 Sep 4.4 18:09:56 10° W 18:14:34 25° NW 18:19:16 10° NNE visible
26 Sep 4.6 23:30:28 10° N 23:33:02 18° NNE 23:33:02 18° NNE visible
27 Sep 4.6 01:13:49 10° NNW 01:14:44 15° NNW 01:14:44 15° NNW visible
27 Sep 4.6 23:14:41 10° N 23:17:02 17° NNE 23:17:02 17° NNE visible
28 Sep 4.7 00:57:58 10° NNW 00:58:44 14° NNW 00:58:44 14° NNW visible
28 Sep 4.7 22:58:53 10° N 23:01:06 16° NNE 23:01:06 16° NNE visible
29 Sep 4.8 00:42:10 10° NNW 00:42:49 13° NNW 00:42:49 13° NNW visible
29 Sep 4.7 22:43:06 10° N 22:45:13 16° NNE 22:45:13 16° NNE visible
30 Sep 4.8 00:26:20 10° NNW 00:26:57 13° NNW 00:26:57 13° NNW visible
30 Sep 5.0 18:56:17 10° NNW 18:57:07 10° NNW 18:57:57 10° NNW visible
30 Sep 4.7 22:27:19 10° N 22:29:23 15° NNE 22:29:23 15° NNE visible
01 Oct 4.9 00:10:30 10° NNW 00:11:06 13° NNW 00:11:06 13° NNW visible
01 Oct 4.9 18:39:59 10° NW 18:41:12 11° NNW 18:42:23 10° N visible
01 Oct 4.6 22:11:33 10° N 22:13:35 15° NNE 22:13:35 15° NNE visible
01 Oct 4.9 23:54:41 10° NNW 23:55:19 13° NNW 23:55:19 13° NNW visible
02 Oct 4.8 18:23:46 10° NW 18:25:16 11° NNW 18:26:45 10° N visible
02 Oct 4.6 21:55:46 10° N 21:57:49 15° NNE 21:57:49 15° NNE visible
02 Oct 4.9 23:38:52 10° NNW 23:39:32 13° NNW 23:39:32 13° NNW visible
03 Oct 4.8 18:07:36 10° NW 18:09:20 11° NNW 18:11:05 10° N visible
03 Oct 4.6 21:40:00 10° N 21:42:04 14° NNE 21:42:04 14° NNE visible
03 Oct 4.9 23:23:03 10° NNW 23:23:48 14° NNW 23:23:48 14° NNW visible
04 Oct 4.6 21:24:13 10° N 21:26:21 14° NNE 21:26:21 14° NNE visible
04 Oct 4.9 23:07:14 10° NNW 23:08:05 14° NNW 23:08:05 14° NNW visible
